| time (UTC) | temp C | wind direction | speed KPH | gust KPH | rain 1hr cm | rain 24hr cm | rain mn cm | humidity % | barometer mb |
| 20260502163008 | 28 | 44 | 8.0 | 20.9 | 0.00 | 0.00 | 0.00 | 28 | 1014.1 |
| 20260502161506 | 28 | 68 | 6.4 | 19.3 | 0.00 | 0.00 | 0.00 | 28 | 1014.1 |
| 20260502151508 | 28 | 102 | 3.2 | 14.5 | 0.00 | 0.00 | 0.00 | 28 | 1013.7 |
| 20260502123014 | 22 | 34 | 0.0 | 6.4 | 0.00 | 0.00 | 0.00 | 31 | 1011.9 |
| 20260502121514 | 22 | 36 | 0.0 | 6.4 | 0.00 | 0.00 | 0.00 | 28 | 1011.7 |
| 20260502114518 | 22 | 86 | 0.0 | 6.4 | 0.00 | 0.00 | 0.00 | 28 | 1011.7 |
| 20260502113016 | 23 | 92 | 1.6 | 6.4 | 0.00 | 0.00 | 0.00 | 27 | 1011.4 |
| 20260502111518 | 22 | 38 | 1.6 | 8.0 | 0.00 | 0.00 | 0.00 | 28 | 1011.3 |
| 20260502110018 | 21 | 59 | 0.0 | 6.4 | 0.00 | 0.00 | 0.00 | 33 | 1011.3 |
| 20260502104516 | 21 | 28 | 0.0 | 0.0 | 0.00 | 0.00 | 0.00 | 29 | 1011.5 |
| 20260502103039 | 21 | 28 | 0.0 | 0.0 | 0.00 | 0.00 | 0.00 | 30 | 1011.3 |
| 20260502101521 | 21 | 28 | 0.0 | 0.0 | 0.00 | 0.00 | 0.00 | 30 | 1011.2 |
| 20260502091520 | 23 | 360 | 1.6 | 6.4 | 0.00 | 0.00 | 0.00 | 25 | 1010.9 |
| 20260502071519 | 23 | 128 | 0.0 | 4.8 | 0.00 | 0.00 | 0.00 | 21 | 1010.5 |
| 20260502070007 | 24 | 125 | 0.0 | 6.4 | 0.00 | 0.00 | 0.00 | 21 | 1010.3 |
| 20260502064525 | 24 | 133 | 0.0 | 4.8 | 0.00 | 0.00 | 0.00 | 20 | 1010.2 |
| 20260502063011 | 24 | 133 | 0.0 | 4.8 | 0.00 | 0.00 | 0.00 | 21 | 1010.3 |
| 20260502061513 | 25 | 134 | 0.0 | 8.0 | 0.00 | 0.00 | 0.00 | 20 | 1010.3 |
| 20260502060018 | 25 | 136 | 1.6 | 6.4 | 0.00 | 0.00 | 0.00 | 20 | 1010.1 |
| 20260502054505 | 25 | 143 | 0.0 | 6.4 | 0.00 | 0.00 | 0.00 | 20 | 1010.2 |
| 20260502053003 | 25 | 128 | 1.6 | 6.4 | 0.00 | 0.00 | 0.00 | 20 | 1010.1 |
| 20260502051507 | 25 | 121 | 3.2 | 6.4 | 0.00 | 0.00 | 0.00 | 19 | 1010.0 |
| 20260502050014 | 26 | 140 | 0.0 | 6.4 | 0.00 | 0.00 | 0.00 | 18 | 1009.9 |
| 20260502044521 | 27 | 163 | 1.6 | 8.0 | 0.00 | 0.00 | 0.00 | 17 | 1009.8 |
| 20260502043003 | 27 | 125 | 1.6 | 9.7 | 0.00 | 0.00 | 0.00 | 17 | 1009.7 |
| 20260502041508 | 26 | 144 | 0.0 | 6.4 | 0.00 | 0.00 | 0.00 | 17 | 1009.5 |
| 20260502040014 | 26 | 140 | 0.0 | 8.0 | 0.00 | 0.00 | 0.00 | 17 | 1009.3 |
| 20260502034518 | 27 | 131 | 0.0 | 4.8 | 0.00 | 0.00 | 0.00 | 17 | 1009.2 |
| 20260502033028 | 29 | 167 | 0.0 | 6.4 | 0.00 | 0.00 | 0.00 | 15 | 1009.0 |
| 20260502031504 | 30 | 222 | 1.6 | 6.4 | 0.00 | 0.00 | 0.00 | 15 | 1008.8 |
| 20260502030008 | 30 | 222 | 0.0 | 4.8 | 0.00 | 0.00 | 0.00 | 15 | 1008.6 |
| 20260502024516 | 30 | 241 | 0.0 | 6.4 | 0.00 | 0.00 | 0.00 | 14 | 1008.5 |
| 20260502023021 | 30 | 261 | 0.0 | 4.8 | 0.00 | 0.00 | 0.00 | 14 | 1008.4 |
| 20260502021524 | 31 | 269 | 0.0 | 3.2 | 0.00 | 0.00 | 0.00 | 14 | 1008.2 |
| 20260502020006 | 31 | 269 | 0.0 | 4.8 | 0.00 | 0.00 | 0.00 | 13 | 1008.4 |
| 20260502014525 | 32 | 269 | 0.0 | 4.8 | 0.00 | 0.00 | 0.00 | 13 | 1008.3 |
| 20260502013015 | 32 | 260 | 0.0 | 4.8 | 0.00 | 0.00 | 0.00 | 12 | 1008.3 |
| 20260502011520 | 32 | 219 | 1.6 | 8.0 | 0.00 | 0.00 | 0.00 | 13 | 1008.3 |
| 20260502010026 | 33 | 244 | 1.6 | 6.4 | 0.00 | 0.00 | 0.00 | 14 | 1008.3 |
| 20260502004508 | 33 | 277 | 1.6 | 8.0 | 0.00 | 0.00 | 0.00 | 14 | 1008.3 |
| 20260502003015 | 34 | 219 | 3.2 | 8.0 | 0.00 | 0.00 | 0.00 | 14 | 1008.4 |
| 20260502001519 | 33 | 232 | 0.0 | 9.7 | 0.00 | 0.00 | 0.00 | 15 | 1008.5 |
| 20260502000022 | 33 | 248 | 3.2 | 9.7 | 0.00 | 0.00 | 0.00 | 15 | 1008.5 |
| 20260501234528 | 33 | 279 | 3.2 | 11.3 | 0.00 | 0.00 | 0.00 | 15 | 1008.5 |
| 20260501233011 | 33 | 238 | 1.6 | 6.4 | 0.00 | 0.00 | 0.00 | 16 | 1008.4 |
| 20260501231504 | 32 | 266 | 3.2 | 9.7 | 0.00 | 0.00 | 0.00 | 16 | 1008.6 |
| 20260501230004 | 33 | 252 | 1.6 | 11.3 | 0.00 | 0.00 | 0.00 | 17 | 1008.8 |
| 20260501224503 | 33 | 264 | 3.2 | 12.9 | 0.00 | 0.00 | 0.00 | 17 | 1008.8 |
| 20260501223030 | 32 | 279 | 3.2 | 17.7 | 0.00 | 0.00 | 0.00 | 20 | 1009.1 |
| 20260501221515 | 32 | 279 | 3.2 | 11.3 | 0.00 | 0.00 | 0.00 | 19 | 1009.3 |
| 20260501220004 | 32 | 286 | 3.2 | 16.1 | 0.00 | 0.00 | 0.00 | 22 | 1009.5 |
| 20260501214510 | 31 | 350 | 1.6 | 17.7 | 0.00 | 0.00 | 0.00 | 24 | 1009.8 |
| 20260501213004 | 31 | 337 | 4.8 | 16.1 | 0.00 | 0.00 | 0.00 | 24 | 1010.0 |
| 20260501211513 | 32 | 299 | 0.0 | 9.7 | 0.00 | 0.00 | 0.00 | 23 | 1010.1 |
| 20260501210018 | 32 | 226 | 3.2 | 14.5 | 0.00 | 0.00 | 0.00 | 20 | 1010.4 |
| 20260501204506 | 31 | 236 | 3.2 | 11.3 | 0.00 | 0.00 | 0.00 | 21 | 1010.6 |
| 20260501203009 | 31 | 128 | 0.0 | 8.0 | 0.00 | 0.00 | 0.00 | 22 | 1010.7 |
| 20260501201509 | 31 | 280 | 4.8 | 12.9 | 0.00 | 0.00 | 0.00 | 23 | 1010.8 |
| 20260501200011 | 31 | 236 | 1.6 | 12.9 | 0.00 | 0.00 | 0.00 | 23 | 1011.0 |
| 20260501194526 | 30 | 97 | 3.2 | 12.9 | 0.00 | 0.00 | 0.00 | 24 | 1011.1 |
| 20260501193005 | 30 | 192 | 3.2 | 11.3 | 0.00 | 0.00 | 0.00 | 23 | 1011.4 |
| 20260501191508 | 30 | 74 | 0.0 | 9.7 | 0.00 | 0.00 | 0.00 | 26 | 1011.6 |
| 20260501190011 | 30 | 142 | 1.6 | 9.7 | 0.00 | 0.00 | 0.00 | 25 | 1011.8 |
| 20260501184528 | 30 | 100 | 3.2 | 11.3 | 0.00 | 0.00 | 0.00 | 25 | 1012.0 |
| 20260501183023 | 29 | 88 | 3.2 | 9.7 | 0.00 | 0.00 | 0.00 | 26 | 1012.3 |
| 20260501181506 | 28 | 209 | 1.6 | 9.7 | 0.00 | 0.00 | 0.00 | 28 | 1012.5 |